Location: Moscow
(30.9132°N, 94.8252°W)
Time: 12:43:03
(UTC+00:00)

MOS 1 Rocket - Pass Details

Date: 15 November 2025
Orbit: 610 x 813 km, 97.4° (Epoch: 06 December)

Event Time Altitude Azimuth Distance (km) Brightness Sun altitude
Rises 00:23:56 0° 165° (SSE) 2,857 6.5 -13.5°
Reaches altitude 10° 00:26:05 10° 164° (SSE) 1,954 5.6 -14.0°
Maximum altitude 00:30:18 79° 77° (ENE) 628 2.9 -14.9°
Drops below altitude 10° 00:34:37 10° 352° (N) 2,001 5.6 -15.8°
Sets 00:36:51 0° 351° (N) 2,931 6.5 -16.2°
